Hourly Data Report for October 03, 2017

All times are specified in Local Standard Time (LST). Add 1 hour to adjust for Daylight Saving Time where and when it is observed.

QIKIQTARJUAQ A
NUNAVUT

67°32'48.000" N
64°01'54.000" W
5.50 m
2400577
YVM

Related Data

No related data is available for this station

Download Data

Hourly Data (October 2017)
Hourly Data Report for October 3, 2017
Temp Definition
°C
Dew Point Temp Definition
°C
Rel Hum Definition
%
Wind Dir Definition
10's deg

Wind Spd Definition
km/h
Visibility Definition
km
Stn Press Definition
kPa
Hmdx Definition


Wind Chill Definition


Weather Definition


TIME
00:00 Legend Double Dagger -1.0 -2.1 92 21 13 16.1 100.37   -5 LegendNANA
01:00 Legend Double Dagger -0.5 -1.9 90 19 9 16.1 100.24   -4 LegendNANA
02:00 Legend Double Dagger 0.0 -1.6 89 LegendMM 4 16.1 100.15   -1 LegendNANA
03:00 Legend Double Dagger 0.5 -1.7 85   0 16.1 100.04     LegendNANA
04:00 Legend Double Dagger 1.7 -1.9 77 LegendMM 8 16.1 99.93     LegendNANA
05:00 Legend Double Dagger 3.4 -2.6 65 1 8 16.1 99.83     LegendNANA
06:00 Legend Double Dagger 3.3 -2.0 68 LegendMM 8 16.1 99.67     LegendNANA
07:00 Legend Double Dagger 5.7 -4.1 50 LegendMM 17 16.1 99.52     LegendNANA
08:00 Legend Double Dagger 4.7 -3.3 56 15 28 16.1 99.41     LegendNANA
09:00 Legend Double Dagger 3.9 -3.2 60 LegendMM 8 16.1 99.31     LegendNANA
10:00 Legend Double Dagger 3.7 -2.9 62 LegendMM 8 16.1 99.19     LegendNANA
11:00 Legend Double Dagger 3.5 -1.8 68 20 13 16.1 99.08     LegendNANA
12:00 Legend Double Dagger 3.7 -1.5 69 LegendMM 4 16.1 98.95     LegendNANA
13:00 Legend Double Dagger 2.5 -0.6 80 36 18 16.1 98.86     LegendNANA
14:00 Legend Double Dagger 4.2 -0.9 70 LegendMM 4 16.1 98.77     LegendNANA
15:00 Legend Double Dagger 1.6 -0.7 85 7 9 16.1 98.69     LegendNANA
16:00 Legend Double Dagger 1.4 -0.7 86 7 9 16.1 98.58     LegendNANA
17:00 Legend Double Dagger 1.0 -0.7 88   0 16.1 98.42     LegendNANA
18:00 Legend Double Dagger 1.3 -1.2 84 LegendMM 4 16.1 98.36     LegendNANA
19:00 Legend Double Dagger 1.2 -1.2 84 7 8 16.1 98.29     LegendNANA
20:00 Legend Double Dagger 1.1 -0.8 87 7 11 16.1 98.23     LegendNANA
21:00 Legend Double Dagger 0.7 -0.5 91 5 5 16.1 98.19     LegendNANA
22:00 Legend Double Dagger 1.0 0.0 93 36 8 16.1 98.15     LegendNANA
23:00 Legend Double Dagger 1.1 -0.9 87 9 4 16.1 98.14     LegendNANA

Notes on Data Quality.

Legend

  • E = Estimated
  • M = Missing
  • NA = Not Available
  • ‡ = Partner data that is not subject to review by the National Climate Archives
Date modified: